Time,TemperatureF,DewpointF,PressureIn,WindDirection,WindDirectionDegrees,WindSpeedMPH,WindSpeedGustMPH,Humidity,HourlyPrecipIn,Conditions,Clouds,dailyrainin,SoftwareType,DateUTC
2013-02-04 00:01:00,20.0,18.0,30.06,WSW,257,0.0,1.0,92,0.00,,,0.02,,2013-02-04 06:01:00,
2013-02-04 00:11:00,20.0,18.0,30.06,WSW,257,0.0,1.0,92,0.00,,,0.02,,2013-02-04 06:11:00,
2013-02-04 00:21:00,20.0,18.0,30.05,WSW,257,0.0,1.0,92,0.00,,,0.02,,2013-02-04 06:21:00,
2013-02-04 00:32:00,20.0,18.0,30.05,WSW,257,0.0,1.0,92,0.00,,,0.02,,2013-02-04 06:32:00,
2013-02-04 00:42:00,20.0,18.0,30.05,WSW,257,0.0,1.0,92,0.00,,,0.02,,2013-02-04 06:42:00,
2013-02-04 00:52:00,20.0,18.0,30.04,SE,132,1.0,6.0,92,0.00,,,0.02,,2013-02-04 06:52:00,
2013-02-04 01:02:00,20.0,18.0,30.03,SSE,163,1.0,7.0,92,0.00,,,0.02,,2013-02-04 07:02:00,
2013-02-04 01:11:00,20.0,18.0,30.03,SSE,163,1.0,7.0,92,0.00,,,0.02,,2013-02-04 07:11:00,
2013-02-04 01:21:00,20.0,18.0,30.01,ESE,109,2.0,7.0,92,0.00,,,0.02,,2013-02-04 07:21:00,
2013-02-04 01:32:00,20.0,18.0,30.01,ESE,108,1.0,8.0,92,0.00,,,0.02,,2013-02-04 07:32:00,
2013-02-04 01:42:00,20.0,18.0,30.01,ESE,108,1.0,8.0,92,0.00,,,0.02,,2013-02-04 07:42:00,
2013-02-04 01:52:00,20.0,18.0,30.00,East,97,3.0,7.0,93,0.00,,,0.02,,2013-02-04 07:52:00,
2013-02-04 02:01:00,20.0,18.0,29.99,ESE,111,3.0,8.0,93,0.00,,,0.02,,2013-02-04 08:01:00,
2013-02-04 02:11:00,20.0,18.0,29.99,ESE,111,3.0,8.0,93,0.00,,,0.02,,2013-02-04 08:11:00,
2013-02-04 02:21:00,20.0,18.0,29.98,ESE,109,3.0,7.0,93,0.00,,,0.02,,2013-02-04 08:21:00,
2013-02-04 02:31:00,20.0,18.0,29.97,SE,126,3.0,8.0,93,0.00,,,0.02,,2013-02-04 08:31:00,
2013-02-04 02:42:00,20.0,18.0,29.97,SE,126,3.0,8.0,93,0.00,,,0.02,,2013-02-04 08:42:00,
2013-02-04 02:52:00,21.0,19.0,29.96,East,96,4.0,8.0,93,0.00,,,0.02,,2013-02-04 08:52:00,
2013-02-04 03:02:00,21.0,19.0,29.96,ESE,120,4.0,8.0,92,0.00,,,0.02,,2013-02-04 09:02:00,
2013-02-04 03:11:00,21.0,19.0,29.96,ESE,120,4.0,8.0,92,0.00,,,0.02,,2013-02-04 09:11:00,
2013-02-04 03:21:00,21.0,19.0,29.95,SE,144,4.0,7.0,92,0.00,,,0.02,,2013-02-04 09:21:00,
2013-02-04 03:31:00,21.0,19.0,29.94,SE,128,6.0,8.0,92,0.00,,,0.02,,2013-02-04 09:31:00,
2013-02-04 03:41:00,21.0,19.0,29.94,SE,128,6.0,8.0,92,0.00,,,0.02,,2013-02-04 09:41:00,
2013-02-04 03:52:00,21.0,19.0,29.94,SE,128,6.0,8.0,92,0.00,,,0.02,,2013-02-04 09:52:00,
2013-02-04 04:01:00,21.0,19.0,29.93,ESE,105,6.0,11.0,91,0.00,,,0.02,,2013-02-04 10:01:00,
2013-02-04 04:11:00,21.0,19.0,29.93,ESE,105,6.0,11.0,91,0.00,,,0.02,,2013-02-04 10:11:00,
2013-02-04 04:21:00,21.0,19.0,29.92,ESE,107,5.0,8.0,91,0.00,,,0.02,,2013-02-04 10:21:00,
2013-02-04 04:32:00,21.0,19.0,29.92,ESE,109,6.0,11.0,91,0.00,,,0.02,,2013-02-04 10:32:00,
2013-02-04 04:41:00,21.0,19.0,29.92,ESE,109,6.0,11.0,91,0.00,,,0.02,,2013-02-04 10:41:00,
2013-02-04 04:52:00,22.0,20.0,29.92,ESE,107,5.0,8.0,91,0.00,,,0.02,,2013-02-04 10:52:00,
2013-02-04 05:02:00,22.0,20.0,29.91,ESE,119,7.0,10.0,91,0.00,,,0.02,,2013-02-04 11:02:00,
2013-02-04 05:11:00,22.0,20.0,29.91,ESE,119,7.0,10.0,91,0.00,,,0.02,,2013-02-04 11:11:00,
2013-02-04 05:22:00,22.0,20.0,29.91,ESE,122,7.0,10.0,91,0.00,,,0.02,,2013-02-04 11:22:00,
2013-02-04 05:32:00,22.0,20.0,29.90,East,91,6.0,11.0,90,0.00,,,0.02,,2013-02-04 11:32:00,
2013-02-04 05:42:00,22.0,20.0,29.90,East,91,6.0,11.0,90,0.00,,,0.02,,2013-02-04 11:42:00,
2013-02-04 05:52:00,22.0,20.0,29.90,ESE,103,4.0,10.0,90,0.00,,,0.02,,2013-02-04 11:52:00,
2013-02-04 06:02:00,22.0,20.0,29.90,ESE,113,3.0,8.0,90,0.00,,,0.02,,2013-02-04 12:02:00,
2013-02-04 06:12:00,22.0,20.0,29.90,ESE,113,3.0,8.0,90,0.00,,,0.02,,2013-02-04 12:12:00,
2013-02-04 06:22:00,22.0,20.0,29.89,ESE,103,4.0,8.0,90,0.00,,,0.02,,2013-02-04 12:22:00,
2013-02-04 06:32:00,22.0,20.0,29.89,East,96,4.0,9.0,92,0.00,,,0.02,,2013-02-04 12:32:00,
2013-02-04 06:42:00,22.0,20.0,29.89,East,96,4.0,9.0,92,0.00,,,0.02,,2013-02-04 12:42:00,
2013-02-04 06:53:00,22.0,20.0,29.89,East,85,4.0,9.0,92,0.00,,,0.02,,2013-02-04 12:53:00,
2013-02-04 08:22:00,23.0,21.0,29.88,ESE,104,3.0,7.0,93,0.00,,,0.02,,2013-02-04 14:22:00,
2013-02-04 08:32:00,23.0,21.0,29.89,SE,128,1.0,7.0,93,0.00,,,0.02,,2013-02-04 14:32:00,
2013-02-04 08:42:00,23.0,21.0,29.89,SE,128,1.0,7.0,93,0.00,,,0.02,,2013-02-04 14:42:00,
2013-02-04 08:52:00,23.0,21.0,29.90,East,98,0.0,7.0,92,0.00,,,0.02,,2013-02-04 14:52:00,
2013-02-04 09:03:00,23.0,21.0,29.90,NE,42,0.0,4.0,92,0.00,,,0.02,,2013-02-04 15:03:00,
2013-02-04 09:12:00,23.0,21.0,29.90,NE,42,0.0,4.0,92,0.00,,,0.02,,2013-02-04 15:12:00,
2013-02-04 09:23:00,24.0,22.0,29.89,NNE,13,1.0,7.0,91,0.00,,,0.02,,2013-02-04 15:23:00,
2013-02-04 09:33:00,24.0,22.0,29.90,East,90,2.0,7.0,90,0.00,,,0.02,,2013-02-04 15:33:00,
2013-02-04 09:43:00,24.0,22.0,29.90,East,90,2.0,7.0,90,0.00,,,0.02,,2013-02-04 15:43:00,
2013-02-04 09:53:00,25.0,22.0,29.90,ESE,113,1.0,5.0,89,0.00,,,0.02,,2013-02-04 15:53:00,
2013-02-04 10:02:00,26.0,23.0,29.89,NE,50,1.0,5.0,88,0.00,,,0.02,,2013-02-04 16:02:00,
2013-02-04 10:11:00,26.0,23.0,29.89,NE,50,1.0,5.0,88,0.00,,,0.02,,2013-02-04 16:11:00,
2013-02-04 10:22:00,27.0,24.0,29.90,ESE,114,0.0,4.0,88,0.00,,,0.02,,2013-02-04 16:22:00,
2013-02-04 10:33:00,27.0,23.0,29.90,NNE,14,2.0,5.0,86,0.00,,,0.02,,2013-02-04 16:33:00,
2013-02-04 10:42:00,27.0,23.0,29.90,NNE,14,2.0,5.0,86,0.00,,,0.02,,2013-02-04 16:42:00,
2013-02-04 10:52:00,27.0,23.0,29.90,NNW,345,2.0,5.0,86,0.00,,,0.02,,2013-02-04 16:52:00,
2013-02-04 11:02:00,27.0,23.0,29.90,NE,51,2.0,7.0,86,0.01,,,0.03,,2013-02-04 17:02:00,
2013-02-04 11:11:00,27.0,23.0,29.90,NE,51,2.0,7.0,86,0.01,,,0.03,,2013-02-04 17:11:00,
2013-02-04 11:21:00,27.0,24.0,29.91,NNE,17,2.0,6.0,87,0.01,,,0.03,,2013-02-04 17:21:00,
2013-02-04 11:32:00,27.0,24.0,29.91,NNE,18,3.0,8.0,87,0.01,,,0.03,,2013-02-04 17:32:00,
2013-02-04 11:42:00,27.0,24.0,29.91,NNE,18,3.0,8.0,87,0.01,,,0.03,,2013-02-04 17:42:00,
2013-02-04 11:52:00,26.0,23.0,29.91,NNE,27,3.0,8.0,88,0.01,,,0.03,,2013-02-04 17:52:00,
2013-02-04 12:03:00,26.0,23.0,29.91,NE,41,2.0,7.0,87,0.00,,,0.03,,2013-02-04 18:03:00,
2013-02-04 12:11:00,26.0,23.0,29.91,NE,41,2.0,7.0,87,0.00,,,0.03,,2013-02-04 18:11:00,
2013-02-04 12:22:00,26.0,23.0,29.91,NNE,22,2.0,7.0,87,0.00,,,0.03,,2013-02-04 18:22:00,
2013-02-04 12:32:00,26.0,23.0,29.91,NNE,22,2.0,7.0,87,0.00,,,0.03,,2013-02-04 18:32:00,
2013-02-04 12:42:00,26.0,23.0,29.91,NNE,22,2.0,7.0,87,0.00,,,0.03,,2013-02-04 18:42:00,
2013-02-04 12:52:00,26.0,23.0,29.90,NNE,26,2.0,8.0,87,0.00,,,0.03,,2013-02-04 18:52:00,
2013-02-04 13:02:00,26.0,22.0,29.91,North,355,4.0,9.0,85,0.00,,,0.03,,2013-02-04 19:02:00,
2013-02-04 13:11:00,26.0,22.0,29.91,North,355,4.0,9.0,85,0.00,,,0.03,,2013-02-04 19:11:00,
2013-02-04 13:22:00,26.0,22.0,29.92,NNE,19,4.0,10.0,85,0.00,,,0.02,,2013-02-04 19:22:00,
2013-02-04 13:31:00,25.0,21.0,29.93,NNW,342,2.0,10.0,85,0.00,,,0.02,,2013-02-04 19:31:00,
2013-02-04 13:42:00,25.0,21.0,29.93,NNW,342,2.0,10.0,85,0.00,,,0.02,,2013-02-04 19:42:00,
2013-02-04 13:52:00,25.0,21.0,29.92,North,5,4.0,10.0,85,0.00,,,0.02,,2013-02-04 19:52:00,
2013-02-04 14:02:00,25.0,21.0,29.93,NE,40,4.0,9.0,85,0.00,,,0.02,,2013-02-04 20:02:00,
2013-02-04 14:12:00,25.0,21.0,29.93,NE,40,4.0,9.0,85,0.00,,,0.02,,2013-02-04 20:12:00,
2013-02-04 14:22:00,25.0,21.0,29.94,NNE,18,4.0,12.0,85,0.00,,,0.01,,2013-02-04 20:22:00,
2013-02-04 14:32:00,24.0,20.0,29.94,NNE,16,5.0,10.0,85,0.00,,,0.01,,2013-02-04 20:32:00,
2013-02-04 14:42:00,24.0,20.0,29.94,NNE,16,5.0,10.0,85,0.00,,,0.01,,2013-02-04 20:42:00,
2013-02-04 14:52:00,23.0,19.0,29.93,NE,47,6.0,14.0,84,0.00,,,0.01,,2013-02-04 20:52:00,
2013-02-04 15:02:00,23.0,19.0,29.93,NE,47,6.0,14.0,84,0.00,,,0.01,,2013-02-04 21:02:00,
2013-02-04 15:11:00,23.0,19.0,29.93,NE,47,6.0,14.0,84,0.00,,,0.01,,2013-02-04 21:11:00,
2013-02-04 15:22:00,25.0,20.0,29.92,NNE,13,4.0,8.0,81,0.00,,,0.01,,2013-02-04 21:22:00,
2013-02-04 15:32:00,25.0,20.0,29.91,NNE,14,3.0,9.0,81,0.00,,,0.01,,2013-02-04 21:32:00,
2013-02-04 15:43:00,25.0,20.0,29.91,NNE,14,3.0,9.0,81,0.00,,,0.01,,2013-02-04 21:43:00,
2013-02-04 15:52:00,24.0,19.0,29.92,NNW,341,4.0,12.0,82,0.00,,,0.01,,2013-02-04 21:52:00,
2013-02-04 16:02:00,23.0,19.0,29.93,North,360,4.0,10.0,84,0.00,,,0.01,,2013-02-04 22:02:00,
2013-02-04 16:12:00,23.0,19.0,29.93,North,360,4.0,10.0,84,0.00,,,0.01,,2013-02-04 22:12:00,
2013-02-04 16:21:00,22.0,18.0,29.94,NNW,331,5.0,10.0,84,0.00,,,0.01,,2013-02-04 22:21:00,
2013-02-04 16:32:00,21.0,17.0,29.94,NW,304,4.0,10.0,85,0.00,,,0.01,,2013-02-04 22:32:00,
2013-02-04 16:42:00,21.0,17.0,29.94,NW,304,4.0,10.0,85,0.00,,,0.01,,2013-02-04 22:42:00,
2013-02-04 16:52:00,20.0,16.0,29.94,North,5,3.0,10.0,85,0.00,,,0.01,,2013-02-04 22:52:00,
2013-02-04 17:01:00,20.0,16.0,29.95,North,355,3.0,8.0,85,0.00,,,0.01,,2013-02-04 23:01:00,
2013-02-04 17:11:00,20.0,16.0,29.95,North,355,3.0,8.0,85,0.00,,,0.01,,2013-02-04 23:11:00,
2013-02-04 17:21:00,19.0,16.0,29.96,North,355,2.0,5.0,86,0.00,,,0.01,,2013-02-04 23:21:00,
2013-02-04 17:32:00,18.0,14.0,29.96,North,355,2.0,4.0,85,0.00,,,0.01,,2013-02-04 23:32:00,
2013-02-04 17:42:00,18.0,14.0,29.96,North,355,2.0,4.0,85,0.00,,,0.01,,2013-02-04 23:42:00,
2013-02-04 17:52:00,17.0,13.0,29.98,NNW,344,3.0,5.0,85,0.00,,,0.01,,2013-02-04 23:52:00,
2013-02-04 18:01:00,16.0,12.0,29.99,NW,318,1.0,4.0,85,0.00,,,0.01,,2013-02-05 00:01:00,
2013-02-04 18:11:00,16.0,12.0,29.99,NW,318,1.0,4.0,85,0.00,,,0.01,,2013-02-05 00:11:00,
2013-02-04 18:22:00,15.0,12.0,29.99,North,360,1.0,4.0,86,0.00,,,0.01,,2013-02-05 00:22:00,
2013-02-04 18:31:00,14.0,11.0,29.99,North,9,2.0,7.0,86,0.00,,,0.01,,2013-02-05 00:31:00,
2013-02-04 18:42:00,14.0,11.0,29.99,North,9,2.0,7.0,86,0.00,,,0.01,,2013-02-05 00:42:00,
2013-02-04 18:52:00,14.0,11.0,29.99,North,5,1.0,5.0,86,0.00,,,0.01,,2013-02-05 00:52:00,
2013-02-04 19:01:00,14.0,10.0,30.00,NNE,17,1.0,5.0,85,0.00,,,0.01,,2013-02-05 01:01:00,
2013-02-04 19:11:00,14.0,10.0,30.00,NNE,17,1.0,5.0,85,0.00,,,0.01,,2013-02-05 01:11:00,
2013-02-04 19:22:00,14.0,10.0,30.00,North,11,0.0,4.0,84,0.00,,,0.01,,2013-02-05 01:22:00,
2013-02-04 19:32:00,13.0,9.0,30.00,NNW,329,0.0,3.0,84,0.00,,,0.01,,2013-02-05 01:32:00,
2013-02-04 19:42:00,13.0,9.0,30.00,NNW,329,0.0,3.0,84,0.00,,,0.01,,2013-02-05 01:42:00,
2013-02-04 19:52:00,13.0,9.0,30.00,North,11,1.0,5.0,84,0.00,,,0.01,,2013-02-05 01:52:00,
2013-02-04 20:01:00,13.0,9.0,30.01,NNW,336,1.0,4.0,84,0.00,,,0.01,,2013-02-05 02:01:00,
2013-02-04 20:11:00,13.0,9.0,30.01,NNW,336,1.0,4.0,84,0.00,,,0.01,,2013-02-05 02:11:00,
2013-02-04 20:22:00,13.0,9.0,30.02,NNW,333,0.0,3.0,85,0.00,,,0.01,,2013-02-05 02:22:00,
2013-02-04 20:32:00,13.0,9.0,30.02,NNE,13,1.0,3.0,84,0.00,,,0.01,,2013-02-05 02:32:00,
2013-02-04 20:42:00,13.0,9.0,30.02,NNE,13,1.0,3.0,84,0.00,,,0.01,,2013-02-05 02:42:00,
2013-02-04 20:52:00,13.0,9.0,30.02,North,9,1.0,4.0,85,0.00,,,0.01,,2013-02-05 02:52:00,
2013-02-04 21:02:00,14.0,10.0,30.01,North,355,2.0,4.0,84,0.00,,,0.01,,2013-02-05 03:02:00,
2013-02-04 21:11:00,14.0,10.0,30.01,North,355,2.0,4.0,84,0.00,,,0.01,,2013-02-05 03:11:00,
2013-02-04 21:21:00,13.0,9.0,30.00,NNW,348,2.0,5.0,83,0.00,,,0.01,,2013-02-05 03:21:00,
2013-02-04 21:32:00,13.0,9.0,30.00,North,351,1.0,3.0,82,0.00,,,0.01,,2013-02-05 03:32:00,
2013-02-04 21:42:00,13.0,9.0,30.00,North,351,1.0,3.0,82,0.00,,,0.01,,2013-02-05 03:42:00,
2013-02-04 21:52:00,12.0,8.0,30.01,North,5,2.0,4.0,83,0.00,,,0.01,,2013-02-05 03:52:00,
2013-02-04 22:01:00,12.0,8.0,30.00,North,360,1.0,3.0,83,0.00,,,0.01,,2013-02-05 04:01:00,
2013-02-04 22:11:00,12.0,8.0,30.00,North,360,1.0,3.0,83,0.00,,,0.01,,2013-02-05 04:11:00,
2013-02-04 22:21:00,12.0,8.0,30.00,North,360,1.0,3.0,83,0.00,,,0.01,,2013-02-05 04:21:00,
2013-02-04 22:32:00,11.0,6.0,30.01,North,349,1.0,4.0,81,0.00,,,0.01,,2013-02-05 04:32:00,
2013-02-04 22:42:00,11.0,6.0,30.01,North,349,1.0,4.0,81,0.00,,,0.01,,2013-02-05 04:42:00,
2013-02-04 22:52:00,10.0,6.0,30.01,NNE,14,1.0,5.0,82,0.00,,,0.01,,2013-02-05 04:52:00,
2013-02-04 23:02:00,9.0,4.0,30.01,North,5,0.0,3.0,81,0.00,,,0.01,,2013-02-05 05:02:00,
2013-02-04 23:11:00,9.0,4.0,30.01,North,5,0.0,3.0,81,0.00,,,0.01,,2013-02-05 05:11:00,
2013-02-04 23:22:00,9.0,4.0,30.01,North,360,1.0,3.0,80,0.00,,,0.01,,2013-02-05 05:22:00,
2013-02-04 23:32:00,9.0,4.0,30.01,NNW,335,1.0,4.0,80,0.00,,,0.01,,2013-02-05 05:32:00,
2013-02-04 23:42:00,9.0,4.0,30.01,NNW,335,1.0,4.0,80,0.00,,,0.01,,2013-02-05 05:42:00,
2013-02-04 23:52:00,9.0,4.0,30.01,NNW,335,1.0,4.0,80,0.00,,,0.01,,2013-02-05 05:52:00,